Date String (YYYY-MM-DD hh:mm:ss) UTC,Instrument flags,Ambient pressure (hPa),Sample flow (lpm),Bypass flow (lpm),Sample temperature (°C),Ambient temperature (°C),ASC tube jacket temperature (°C),LED temperature (°C),Box temperature (°C),Sample RH (%),Span deviation,Mass concentration (μg/m³),Mass concentration (μg/m³),Mass concentration (μg/m³)
DateTimeUTC,F1_M11,P_M11,Q1_M11,Q2_M11,T1_M11,T2_M11,T3_M11,T4_M11,T5_M11,U1_M11,ZSPAN_M11,X0_M11,X2_M11,X1_M11
2022-05-08 19:00:00,,0812.4,5.00,0.00,27.9,27.3,00.0,36.7,29.9,17.8,0000.0,0030.00,0010.16,0004.24
2022-05-08 19:01:00,,0812.4,5.00,0.00,28.0,27.3,00.0,36.7,29.9,17.5,0000.4,0028.97,0010.15,0004.22
2022-05-08 19:02:00,,0812.3,5.00,0.00,28.0,27.3,00.0,36.7,29.9,17.4,0000.2,0029.35,0010.23,0004.23
2022-05-08 19:03:00,,0812.2,5.00,0.00,28.0,27.3,00.0,36.8,29.9,17.1,0000.9,0029.50,0010.22,0004.23
2022-05-08 19:04:00,,0812.2,5.01,0.00,28.0,27.3,00.0,36.8,29.8,17.2,0000.0,0029.52,0010.26,0004.21
2022-05-08 19:05:00,,0812.2,5.00,0.00,28.0,27.3,00.0,36.8,29.9,17.0,0000.0,0030.58,0010.27,0004.23
2022-05-08 19:06:00,,0812.2,5.00,0.00,28.0,27.3,00.0,36.8,29.9,17.2,0000.0,0032.11,0010.29,0004.22
2022-05-08 19:07:00,,0812.2,5.00,0.00,28.0,27.3,00.0,36.8,29.9,17.1,0000.0,0032.52,0010.35,0004.21
2022-05-08 19:08:00,,0812.1,5.00,0.00,28.0,27.3,00.0,36.8,29.9,17.1,-001.2,0032.84,0010.29,0004.20
2022-05-08 19:09:00,,0812.1,5.00,0.00,28.0,27.3,00.0,36.8,29.9,17.3,-000.7,0032.60,0010.20,0004.20
2022-05-08 19:10:00,,0812.1,5.01,0.00,28.1,27.4,00.0,36.9,29.9,17.4,0000.5,0032.45,0010.20,0004.20
2022-05-08 19:11:00,,0812.0,5.00,0.00,28.1,27.4,00.0,36.9,29.9,17.4,0000.8,0032.11,0010.27,0004.19
2022-05-08 19:12:00,,0812.0,5.00,0.00,28.1,27.4,00.0,36.9,29.9,17.2,0002.0,0032.16,0010.27,0004.20
2022-05-08 19:13:00,,0812.1,5.00,0.00,28.1,27.4,00.0,36.9,30.0,17.1,0000.9,0032.85,0010.28,0004.18
2022-05-08 19:14:00,,0812.0,5.00,0.00,28.1,27.4,00.0,36.9,29.9,17.2,0000.0,0032.37,0010.34,0004.18
2022-05-08 19:15:00,,0812.1,5.01,0.00,28.1,27.4,00.0,36.9,29.9,17.1,0000.0,0031.85,0010.33,0004.19
2022-05-08 19:16:00,,0812.0,4.99,0.00,28.1,27.4,00.0,36.9,29.9,17.0,0000.0,0030.63,0010.31,0004.18
2022-05-08 19:17:00,,0812.0,5.00,0.00,28.1,27.4,00.0,36.9,30.0,17.2,0000.0,0029.06,0010.31,0004.18
2022-05-08 19:18:00,,0812.1,5.00,0.00,28.1,27.4,00.0,37.0,30.0,17.1,0000.0,0028.75,0010.20,0004.16
2022-05-08 19:19:00,,0812.1,5.01,0.00,28.1,27.5,00.0,37.0,30.0,17.1,0000.0,0028.30,0010.11,0004.18
2022-05-08 19:20:00,,0812.0,5.00,0.00,28.2,27.5,00.0,37.0,30.0,17.1,0000.0,0028.15,0010.11,0004.18
2022-05-08 19:21:00,,0812.0,5.00,0.00,28.2,27.5,00.0,37.0,30.0,17.0,0000.0,0028.24,0010.10,0004.19
2022-05-08 19:22:00,,0812.0,5.00,0.00,28.2,27.5,00.0,37.0,30.0,17.1,0000.0,0028.39,0009.99,0004.18
2022-05-08 19:23:00,,0812.0,5.00,0.00,28.2,27.5,00.0,37.0,30.0,17.4,0000.0,0028.00,0009.99,0004.19
2022-05-08 19:24:00,,0811.9,4.99,0.00,28.2,27.5,00.0,37.0,30.0,17.0,0000.0,0027.37,0009.95,0004.20
2022-05-08 19:25:00,,0812.0,5.00,0.00,28.2,27.5,00.0,37.0,30.1,17.1,0000.0,0028.22,0009.87,0004.18
2022-05-08 19:26:00,,0811.9,5.00,0.00,28.2,27.5,00.0,37.0,30.1,17.0,0000.0,0028.35,0009.80,0004.18
2022-05-08 19:27:00,,0811.9,4.99,0.00,28.2,27.5,00.0,37.1,30.1,17.1,0000.0,0028.07,0009.84,0004.17
2022-05-08 19:28:00,,0811.9,5.01,0.00,28.2,27.5,00.0,37.1,30.1,17.0,0000.0,0027.73,0009.77,0004.16
2022-05-08 19:29:00,,0811.9,4.99,0.00,28.2,27.5,00.0,37.1,30.1,17.2,0000.0,0027.73,0009.84,0004.18
2022-05-08 19:30:00,,0811.7,5.00,0.00,28.2,27.5,00.0,37.1,30.1,17.3,0000.0,0028.26,0009.96,0004.18
2022-05-08 19:31:00,,0811.7,5.00,0.00,28.2,27.5,00.0,37.1,30.1,17.0,0000.0,0028.77,0009.90,0004.17
2022-05-08 19:32:00,,0811.7,5.00,0.00,28.2,27.5,00.0,37.1,30.1,16.8,0000.0,0028.33,0009.84,0004.18
2022-05-08 19:33:00,,0811.6,5.01,0.00,28.2,27.6,00.0,37.1,30.1,16.8,0000.0,0027.92,0009.87,0004.18
2022-05-08 19:34:00,,0811.5,5.01,0.00,28.3,27.6,00.0,37.1,30.1,17.0,0000.0,0028.67,0009.83,0004.17
2022-05-08 19:35:00,,0811.4,4.99,0.00,28.3,27.6,00.0,37.1,30.1,17.3,0000.0,0029.47,0009.85,0004.18
2022-05-08 19:36:00,,0811.4,5.01,0.00,28.3,27.6,00.0,37.1,30.2,16.9,0000.0,0028.50,0009.80,0004.19
2022-05-08 19:37:00,,0811.5,5.01,0.00,28.3,27.6,00.0,37.2,30.1,17.4,0000.0,0028.07,0009.83,0004.20
2022-05-08 19:38:00,,0811.5,4.99,0.00,28.3,27.6,00.0,37.2,30.2,17.1,0000.0,0027.71,0009.74,0004.19
2022-05-08 19:39:00,,0811.5,5.01,0.00,28.3,27.6,00.0,37.2,30.2,17.2,0000.0,0027.90,0009.64,0004.20
2022-05-08 19:40:00,,0811.5,5.00,0.00,28.3,27.6,00.0,37.2,30.2,17.0,0000.0,0027.94,0009.64,0004.20
2022-05-08 19:41:00,,0811.5,5.00,0.00,28.3,27.7,00.0,37.2,30.2,16.9,0000.0,0027.53,0009.59,0004.19
2022-05-08 19:42:00,,0811.4,4.99,0.00,28.4,27.7,00.0,37.2,30.2,17.0,0000.0,0027.12,0009.68,0004.19
2022-05-08 19:43:00,,0811.4,5.00,0.00,28.4,27.7,00.0,37.2,30.2,16.8,0000.0,0027.87,0009.86,0004.21
2022-05-08 19:44:00,,0811.4,5.01,0.00,28.4,27.7,00.0,37.2,30.2,16.8,0000.0,0028.91,0009.82,0004.20
2022-05-08 19:45:00,,0811.4,5.00,0.00,28.4,27.7,00.0,37.3,30.2,17.0,0000.0,0029.25,0009.78,0004.20
2022-05-08 19:46:00,,0811.4,4.99,0.00,28.4,27.8,00.0,37.3,30.3,17.2,0000.0,0028.40,0009.88,0004.21
2022-05-08 19:47:00,,0811.4,5.00,0.00,28.4,27.8,00.0,37.3,30.3,17.1,0000.0,0027.85,0009.88,0004.21
2022-05-08 19:48:00,,0811.5,5.00,0.00,28.5,27.8,00.0,37.3,30.3,16.7,0000.0,0028.07,0009.88,0004.22
2022-05-08 19:49:00,,0811.5,4.99,0.00,28.5,27.8,00.0,37.3,30.3,16.8,0000.0,0028.52,0009.96,0004.25
2022-05-08 19:50:00,,0811.4,5.00,0.00,28.5,27.8,00.0,37.3,30.3,16.6,0000.0,0028.31,0009.98,0004.26
2022-05-08 19:51:00,,0811.4,5.00,0.00,28.5,27.8,00.0,37.3,30.4,16.8,0000.0,0028.37,0010.05,0004.25
2022-05-08 19:52:00,,0811.4,4.99,0.00,28.5,27.9,00.0,37.4,30.4,16.8,0000.0,0028.55,0010.08,0004.26
2022-05-08 19:53:00,,0811.3,5.01,0.00,28.6,27.9,00.0,37.4,30.4,16.8,0000.0,0028.58,0009.99,0004.27
2022-05-08 19:54:00,,0811.3,5.00,0.00,28.6,27.9,00.0,37.4,30.4,16.7,0000.0,0028.10,0009.93,0004.26
2022-05-08 19:55:00,,0811.3,5.01,0.00,28.6,27.9,00.0,37.4,30.4,16.7,0000.0,0027.31,0009.99,0004.26
2022-05-08 19:56:00,,0811.3,5.00,0.00,28.6,27.9,00.0,37.4,30.4,16.5,0000.0,0026.89,0010.09,0004.27
2022-05-08 19:57:00,,0811.2,5.00,0.00,28.6,28.0,00.0,37.4,30.5,16.7,0000.0,0026.09,0009.94,0004.25
2022-05-08 19:58:00,,0811.2,5.00,0.00,28.6,28.0,00.0,37.4,30.5,17.0,0000.0,0026.71,0009.88,0004.24
2022-05-08 19:59:00,,0811.2,5.01,0.00,28.6,28.0,00.0,37.5,30.4,16.8,0000.0,0027.40,0009.97,0004.24
